Time,TemperatureF,DewpointF,PressureIn,WindDirection,WindDirectionDegrees,WindSpeedMPH,WindSpeedGustMPH,Humidity,HourlyPrecipIn,Conditions,Clouds,dailyrainin,SoftwareType,DateUTC
2013-11-14 00:00:00,37.0,-99.9,-100.00,WNW,297,38.0,38.0,-999,-99.99,,,-99.99,,2013-11-14 07:00:00,
2013-11-14 00:53:00,37.0,-99.9,-100.00,WNW,297,38.0,38.0,-999,-99.99,,,-99.99,,2013-11-14 07:53:00,
2013-11-14 01:42:00,36.0,-99.9,-100.00,West,278,32.0,39.0,-999,-99.99,,,-99.99,,2013-11-14 08:42:00,
2013-11-14 01:53:00,36.0,-99.9,-100.00,West,278,32.0,39.0,-999,-99.99,,,-99.99,,2013-11-14 08:53:00,
2013-11-14 02:43:00,32.0,-99.9,-100.00,WNW,301,23.0,32.0,-999,-99.99,,,-99.99,,2013-11-14 09:43:00,
2013-11-14 02:53:00,32.0,-99.9,-100.00,WNW,301,23.0,32.0,-999,-99.99,,,-99.99,,2013-11-14 09:53:00,
2013-11-14 03:43:00,32.0,-99.9,-100.00,NW,309,11.0,17.0,-999,-99.99,,,-99.99,,2013-11-14 10:43:00,
2013-11-14 03:52:00,32.0,-99.9,-100.00,NW,309,11.0,17.0,-999,-99.99,,,-99.99,,2013-11-14 10:52:00,
2013-11-14 04:42:00,30.0,-99.9,-100.00,NW,304,7.0,10.0,-999,-99.99,,,-99.99,,2013-11-14 11:42:00,
2013-11-14 04:52:00,30.0,-99.9,-100.00,NW,304,7.0,10.0,-999,-99.99,,,-99.99,,2013-11-14 11:52:00,
2013-11-14 05:42:00,32.0,-99.9,-100.00,NW,314,5.0,6.0,-999,-99.99,,,-99.99,,2013-11-14 12:42:00,
2013-11-14 05:52:00,32.0,-99.9,-100.00,NW,314,5.0,6.0,-999,-99.99,,,-99.99,,2013-11-14 12:52:00,
2013-11-14 06:42:00,30.0,-99.9,-100.00,NW,308,14.0,21.0,-999,-99.99,,,-99.99,,2013-11-14 13:42:00,
2013-11-14 06:52:00,30.0,-99.9,-100.00,NW,308,14.0,21.0,-999,-99.99,,,-99.99,,2013-11-14 13:52:00,
2013-11-14 07:42:00,28.0,-99.9,-100.00,WNW,303,16.0,20.0,-999,-99.99,,,-99.99,,2013-11-14 14:42:00,
2013-11-14 07:52:00,28.0,-99.9,-100.00,WNW,303,16.0,20.0,-999,-99.99,,,-99.99,,2013-11-14 14:52:00,
2013-11-14 08:43:00,30.0,-99.9,-100.00,WNW,290,17.0,26.0,-999,-99.99,,,-99.99,,2013-11-14 15:43:00,
2013-11-14 08:53:00,30.0,-99.9,-100.00,WNW,290,17.0,26.0,-999,-99.99,,,-99.99,,2013-11-14 15:53:00,
2013-11-14 09:43:00,34.0,-99.9,-100.00,WNW,303,22.0,27.0,-999,-99.99,,,-99.99,,2013-11-14 16:43:00,
2013-11-14 09:52:00,34.0,-99.9,-100.00,WNW,303,22.0,27.0,-999,-99.99,,,-99.99,,2013-11-14 16:52:00,
2013-11-14 10:42:00,37.0,-99.9,-100.00,WNW,293,15.0,25.0,-999,-99.99,,,-99.99,,2013-11-14 17:42:00,
2013-11-14 10:52:00,37.0,-99.9,-100.00,WNW,293,15.0,25.0,-999,-99.99,,,-99.99,,2013-11-14 17:52:00,
2013-11-14 11:42:00,41.0,-99.9,-100.00,West,278,26.0,29.0,-999,-99.99,,,-99.99,,2013-11-14 18:42:00,
2013-11-14 11:52:00,41.0,-99.9,-100.00,West,278,26.0,29.0,-999,-99.99,,,-99.99,,2013-11-14 18:52:00,
2013-11-14 12:42:00,43.0,-99.9,-100.00,WNW,288,25.0,31.0,-999,-99.99,,,-99.99,,2013-11-14 19:42:00,
2013-11-14 12:52:00,43.0,-99.9,-100.00,WNW,288,25.0,31.0,-999,-99.99,,,-99.99,,2013-11-14 19:52:00,
2013-11-14 13:42:00,43.0,-99.9,-100.00,NW,304,17.0,33.0,-999,-99.99,,,-99.99,,2013-11-14 20:42:00,
2013-11-14 13:52:00,43.0,-99.9,-100.00,NW,304,17.0,33.0,-999,-99.99,,,-99.99,,2013-11-14 20:52:00,
2013-11-14 14:43:00,45.0,-99.9,-100.00,NW,307,14.0,26.0,-999,-99.99,,,-99.99,,2013-11-14 21:43:00,
2013-11-14 14:50:00,45.0,-99.9,-100.00,WNW,286,9.0,18.0,-999,-99.99,,,-99.99,,2013-11-14 21:50:00,
2013-11-14 14:54:00,45.0,-99.9,-100.00,NW,307,14.0,26.0,-999,-99.99,,,-99.99,,2013-11-14 21:54:00,
2013-11-14 15:43:00,45.0,-99.9,-100.00,WNW,286,9.0,18.0,-999,-99.99,,,-99.99,,2013-11-14 22:43:00,
2013-11-14 15:50:00,43.0,-99.9,-100.00,West,272,6.0,13.0,-999,-99.99,,,-99.99,,2013-11-14 22:50:00,
2013-11-14 16:43:00,43.0,-99.9,-100.00,West,272,6.0,13.0,-999,-99.99,,,-99.99,,2013-11-14 23:43:00,
2013-11-14 16:50:00,36.0,-99.9,-100.00,NNW,333,4.0,6.0,-999,-99.99,,,-99.99,,2013-11-14 23:50:00,
2013-11-14 17:42:00,36.0,-99.9,-100.00,NNW,333,4.0,6.0,-999,-99.99,,,-99.99,,2013-11-15 00:42:00,
2013-11-14 17:50:00,34.0,-99.9,-100.00,WSW,249,3.0,3.0,-999,-99.99,,,-99.99,,2013-11-15 00:50:00,
2013-11-14 18:42:00,34.0,-99.9,-100.00,WSW,249,3.0,3.0,-999,-99.99,,,-99.99,,2013-11-15 01:42:00,
2013-11-14 18:50:00,32.0,-99.9,-100.00,NNE,27,4.0,5.0,-999,-99.99,,,-99.99,,2013-11-15 01:50:00,
2013-11-14 19:42:00,32.0,-99.9,-100.00,NNE,27,4.0,5.0,-999,-99.99,,,-99.99,,2013-11-15 02:42:00,
2013-11-14 19:50:00,30.0,-99.9,-100.00,NNW,341,2.0,4.0,-999,-99.99,,,-99.99,,2013-11-15 02:50:00,
2013-11-14 20:50:00,28.0,-99.9,-100.00,NE,36,3.0,4.0,-999,-99.99,,,-99.99,,2013-11-15 03:50:00,
2013-11-14 21:43:00,28.0,-99.9,-100.00,NE,36,3.0,4.0,-999,-99.99,,,-99.99,,2013-11-15 04:43:00,
2013-11-14 21:50:00,27.0,-99.9,-100.00,West,264,5.0,8.0,-999,-99.99,,,-99.99,,2013-11-15 04:50:00,
2013-11-14 22:44:00,27.0,-99.9,-100.00,West,264,5.0,8.0,-999,-99.99,,,-99.99,,2013-11-15 05:44:00,
2013-11-14 22:50:00,32.0,-99.9,-100.00,ESE,117,0.0,3.0,-999,-99.99,,,-99.99,,2013-11-15 05:50:00,
2013-11-14 23:44:00,32.0,-99.9,-100.00,ESE,117,0.0,3.0,-999,-99.99,,,-99.99,,2013-11-15 06:44:00,
2013-11-14 23:50:00,28.0,-99.9,-100.00,NNE,25,3.0,5.0,-999,-99.99,,,-99.99,,2013-11-15 06:50:00,